SCP
0 0 0 0 0 0 0 0 0 0 0 0 0 0 0 0 0 -0 -0 0 0 0
0 0 0 0 0 0 0 0 0 0 0 0 0 0 0 0 0 -0 -0 0 -0 -0
0 0 0 0 -0 0 0 0 0 0 0 0 0 0 0 0 0 0 0 0 0 0
0 0 0 0 0 0 0 0 0 0 0 0 1 1 0 0 0 0 0 0 0 0
0 0 0 0 0 0 0 0 0 0 0 0 0 1 1 1 0 0 0 0 0 0
0 0 0 0 0 1 0 0 0 0 0 0 0 1 1 1 1 0 0 0 0 1
0 0 0 0 1 0 1 1 0 0 1 0 0 0 1 1 1 1 1 1 1 1
0 0 0 0 1 1 1 1 1 1 1 1 1 1 1 1 1 1 1 1 1 1
0 -0 -0 0 0 0 0 1 1 1 1 1 1 1 1 1 1 1 1 1 1 1
0 0 -0 -0 0 0 0 0 0 0 1 1 1 1 1 0 1 1 1 1 1 1
0 0 -0 0 0 0 0 0 0 0 0 0 1 0 1 0 1 2 1 1 1 1
0 -0 0 0 0 0 0 0 0 1 0 0 0 0 0 0 1 1 1 1 1 1
0 0 0 1 1 1 1 0 1 0 1 1 0 0 0 0 1 1 1 1 1 0
0 0 0 0 0 1 1 1 1 1 1 1 1 1 0 0 1 1 1 1 1 1
Wind_Speed_500mb
56 47 41 38 31 20 16 15 21 14 13 15 15 15 17 20 23 26 28 26 24 21
64 58 50 43 38 29 22 16 20 18 15 16 15 16 18 18 21 24 23 23 23 21
73 62 55 48 44 35 30 26 25 26 20 17 18 20 21 20 22 23 23 23 23 21
81 70 60 52 49 44 40 37 34 33 28 24 28 28 27 27 26 28 28 27 27 25
85 77 70 63 56 51 44 44 41 40 38 33 31 35 36 32 32 33 32 30 33 32
90 85 81 78 69 60 56 51 50 49 49 44 36 36 39 38 36 37 38 36 37 38
76 80 86 87 83 74 67 65 60 58 57 53 47 42 42 42 41 41 42 42 43 45
76 73 71 78 88 86 82 78 73 69 64 61 58 56 55 52 52 53 53 52 51 52
60 68 76 72 75 85 89 86 84 85 80 76 72 70 65 65 66 65 65 66 65 64
53 55 62 71 72 71 74 81 89 88 86 89 88 86 83 80 80 81 80 79 77 76
61 65 57 61 72 74 72 71 72 78 84 88 90 87 84 84 88 92 92 91 87 86
56 64 60 60 64 67 74 75 75 74 73 76 72 67 70 74 79 79 79 79 80 80
56 59 65 66 68 68 70 71 73 76 78 77 76 68 65 62 64 68 67 68 70 70
34 42 51 59 61 64 68 73 72 72 70 72 72 71 69 65 69 70 68 69 70 69
Wind_Direction_500mb
218 217 217 223 231 242 255 265 236 232 234 236 246 255 249 250 249 251 256 266 274 280
218 221 224 225 225 238 239 252 246 245 236 246 252 256 260 257 257 256 261 265 267 271
219 221 227 229 220 234 232 239 245 239 244 257 263 263 266 262 261 258 261 263 265 274
219 221 226 227 230 231 236 237 240 239 245 261 269 270 269 263 260 257 258 265 270 276
220 224 228 231 231 233 236 233 236 239 247 255 269 262 264 266 262 264 265 267 271 277
226 229 232 236 236 237 238 239 239 241 244 251 258 260 258 265 265 265 269 274 278 284
228 233 237 238 239 241 243 245 246 247 249 252 255 257 256 261 267 271 275 279 283 287
237 238 241 241 240 242 245 249 250 252 255 255 256 257 257 260 265 271 276 279 282 286
241 242 244 247 246 244 246 248 251 253 255 258 260 261 263 264 266 269 273 276 280 283
246 248 247 248 250 249 250 250 250 253 255 257 260 263 264 265 268 271 275 277 279 282
244 254 252 252 249 251 253 254 254 254 256 258 260 263 265 267 268 269 272 275 278 280
232 240 251 252 253 254 256 257 257 258 258 259 261 265 266 266 268 270 271 274 276 278
239 247 253 255 255 255 257 258 259 261 261 262 262 262 264 268 270 271 273 276 276 276
242 249 248 251 254 256 258 260 257 259 262 261 262 263 264 264 266 268 271 273 274 274
Wind_Speed_850mb
56 47 41 38 31 20 16 15 21 14 13 15 15 15 17 20 23 26 28 26 24 21
64 58 50 43 38 29 22 16 20 18 15 16 15 16 18 18 21 24 23 23 23 21
73 62 55 48 44 35 30 26 25 26 20 17 18 20 21 20 22 23 23 23 23 21
81 70 60 52 49 44 40 37 34 33 28 24 28 28 27 27 26 28 28 27 27 25
85 77 70 63 56 51 44 44 41 40 38 33 31 35 36 32 32 33 32 30 33 32
90 85 81 78 69 60 56 51 50 49 49 44 36 36 39 38 36 37 38 36 37 38
76 80 86 87 83 74 67 65 60 58 57 53 47 42 42 42 41 41 42 42 43 45
76 73 71 78 88 86 82 78 73 69 64 61 58 56 55 52 52 53 53 52 51 52
60 68 76 72 75 85 89 86 84 85 80 76 72 70 65 65 66 65 65 66 65 64
53 55 62 71 72 71 74 81 89 88 86 89 88 86 83 80 80 81 80 79 77 76
61 65 57 61 72 74 72 71 72 78 84 88 90 87 84 84 88 92 92 91 87 86
56 64 60 60 64 67 74 75 75 74 73 76 72 67 70 74 79 79 79 79 80 80
56 59 65 66 68 68 70 71 73 76 78 77 76 68 65 62 64 68 67 68 70 70
34 42 51 59 61 64 68 73 72 72 70 72 72 71 69 65 69 70 68 69 70 69
Wind_Direction_850mb
218 217 217 223 231 242 255 265 236 232 234 236 246 255 249 250 249 251 256 266 274 280
218 221 224 225 225 238 239 252 246 245 236 246 252 256 260 257 257 256 261 265 267 271
219 221 227 229 220 234 232 239 245 239 244 257 263 263 266 262 261 258 261 263 265 274
219 221 226 227 230 231 236 237 240 239 245 261 269 270 269 263 260 257 258 265 270 276
220 224 228 231 231 233 236 233 236 239 247 255 269 262 264 266 262 264 265 267 271 277
226 229 232 236 236 237 238 239 239 241 244 251 258 260 258 265 265 265 269 274 278 284
228 233 237 238 239 241 243 245 246 247 249 252 255 257 256 261 267 271 275 279 283 287
237 238 241 241 240 242 245 249 250 252 255 255 256 257 257 260 265 271 276 279 282 286
241 242 244 247 246 244 246 248 251 253 255 258 260 261 263 264 266 269 273 276 280 283
246 248 247 248 250 249 250 250 250 253 255 257 260 263 264 265 268 271 275 277 279 282
244 254 252 252 249 251 253 254 254 254 256 258 260 263 265 267 268 269 272 275 278 280
232 240 251 252 253 254 256 257 257 258 258 259 261 265 266 266 268 270 271 274 276 278
239 247 253 255 255 255 257 258 259 261 261 262 262 262 264 268 270 271 273 276 276 276
242 249 248 251 254 256 258 260 257 259 262 261 262 263 264 264 266 268 271 273 274 274